Terminal Aerodrome Forecast
Issued by NWS

Home | Current Version | Previous Version | Graphics & Text | Print | Product List | Glossary Off
Versions: 1 2 3 4 5 6 7 8 9 10 11 12 13 14 15 16 17 18 19 20 21 22 23 24 25 26 27 28 29 30 31 32 33 34 35 36 37 38 39 40

000
FTUS43 KDDC 151314 AAA
TAFGCK
TAF AMD
KGCK 151314Z 1513/1612 36009KT P6SM BKN005
     FM151500 01012KT P6SM OVC007
     FM151700 01015G25KT P6SM OVC015=

USA.gov is the U.S. government's official web portal to all federal, state and local government web resources and services.